Wetbulb
49.87 46.31 44.68 45.91 47.05 46.20 44.71 43.34 42.94 45.82 48.27 46.70 45.99 46.37 48.24 50.54 50.86 50.95 51.81 52.25 52.56 52.90 55.09 56.46 58.38 59.28 59.73 60.75 61.50 62.83 64.62 64.19 63.77 60.93 58.17 56.94 55.52 55.62 55.77 55.46 55.47 55.45 55.13 54.51
47.10 44.69 47.12 45.59 45.45 44.98 44.91 43.19 43.28 45.91 47.23 46.30 46.18 45.85 48.98 50.43 50.97 51.81 51.84 52.18 53.07 54.24 54.99 55.97 56.58 58.04 58.44 58.95 60.25 60.74 62.02 63.65 63.33 61.12 60.07 58.60 57.14 56.50 55.81 55.14 54.55 55.11 54.78 54.05
44.10 45.64 46.24 44.86 44.64 43.47 44.64 43.24 43.83 43.54 46.44 47.71 47.03 46.09 49.40 51.21 51.15 52.14 52.70 53.60 53.89 54.14 54.58 55.95 56.92 57.67 58.41 58.15 58.78 59.49 60.36 61.23 62.72 60.08 59.70 58.03 57.45 55.86 53.69 53.28 53.05 53.46 54.07 53.60
45.64 46.96 44.87 44.75 44.20 45.44 42.57 46.49 44.97 44.15 43.47 41.26 46.65 39.38 47.10 49.60 49.61 50.25 51.86 53.05 53.30 53.56 53.52 53.69 54.08 54.98 56.24 57.86 58.89 58.96 59.59 59.65 60.75 59.99 58.36 55.84 54.69 51.90 53.00 53.36 53.39 52.87 53.02 52.93
45.08 44.78 44.61 44.02 45.02 45.75 44.13 46.90 45.33 44.79 43.52 43.47 43.87 40.72 45.12 48.78 47.69 48.70 50.70 50.65 51.65 52.79 53.15 52.83 53.68 54.82 56.19 56.48 57.07 58.18 58.51 58.59 59.02 58.77 58.40 56.27 55.18 56.03 55.39 54.03 53.07 52.55 52.08 52.56
45.83 48.74 46.21 46.03 46.50 46.42 47.22 45.57 46.05 45.17 43.14 37.34 42.97 42.33 43.12 45.53 46.29 48.71 49.63 49.67 49.60 49.33 50.83 51.41 52.88 53.72 54.39 56.65 56.80 57.21 57.35 57.14 58.46 58.41 57.58 56.59 56.11 56.06 55.65 54.02 52.40 51.83 51.82 51.71
44.52 44.56 45.90 47.40 44.99 47.26 47.01 44.48 38.38 37.30 37.22 37.47 42.79 40.79 43.45 47.60 48.03 46.90 46.38 47.24 47.34 47.79 48.15 49.47 50.55 51.44 53.07 54.77 55.91 55.25 56.07 56.04 56.82 56.66 56.13 55.77 56.97 57.38 55.58 53.28 53.01 52.03 51.61 50.90
40.11 38.90 43.54 47.27 44.84 42.65 43.89 42.71 37.65 30.92 33.66 36.27 42.09 37.20 42.68 48.82 50.25 49.05 48.78 48.10 46.51 45.89 47.31 48.27 49.81 50.92 51.99 53.51 54.84 54.53 54.51 55.41 55.49 55.41 54.81 54.83 55.86 56.65 55.75 54.29 53.76 53.02 52.57 52.09
39.40 39.01 46.28 44.96 46.55 45.71 42.61 39.89 43.44 37.97 39.22 34.88 38.19 42.20 46.08 47.84 47.52 44.20 45.02 45.60 43.59 45.38 46.84 47.46 48.98 50.76 52.11 52.96 53.90 54.02 53.16 54.35 54.81 54.71 54.35 53.54 54.51 55.18 54.82 54.57 53.91 54.03 52.93 52.31
41.18 33.06 40.71 44.07 44.68 45.57 40.93 41.85 33.24 35.65 27.11 27.82 34.52 35.28 36.44 40.30 38.92 40.70 41.00 41.95 43.62 45.31 46.47 47.85 49.58 50.44 51.28 52.57 53.83 54.80 53.50 52.42 53.56 53.62 53.71 52.99 53.42 53.86 54.18 54.54 53.18 52.84 52.50 52.06
39.61 37.09 37.58 39.19 36.38 35.22 35.40 34.88 35.99 35.83 34.04 27.36 25.49 30.93 40.25 37.17 38.07 38.20 40.39 42.50 43.70 45.19 46.66 48.08 49.12 50.05 51.22 52.29 53.07 54.16 53.85 51.90 51.86 52.43 52.72 52.15 52.44 53.00 53.21 53.00 52.93 52.47 52.19 51.32
38.07 34.69 29.84 33.08 37.90 38.74 37.47 35.35 34.21 27.82 26.00 29.21 27.63 26.56 38.52 38.27 39.06 40.70 41.39 43.07 44.38 45.50 46.46 47.44 48.61 49.38 49.83 50.87 51.86 53.14 53.77 52.70 51.49 51.52 51.60 51.12 51.85 52.08 52.01 51.95 52.24 51.97 51.20 51.01
37.53 33.12 26.77 31.49 35.48 38.31 34.02 34.85 34.36 33.38 32.35 25.80 23.46 26.58 39.40 39.37 39.57 41.58 41.79 42.93 43.84 44.68 45.34 46.10 47.07 48.00 48.84 49.12 50.42 51.77 53.17 53.01 51.95 50.81 50.54 50.42 50.66 50.81 50.89 51.42 51.72 51.32 50.93 50.24
39.77 34.35 30.81 26.37 29.49 33.70 30.22 31.81 33.44 32.24 26.29 27.33 27.81 29.91 34.69 37.17 38.52 40.72 41.55 42.51 43.23 43.89 44.61 45.59 46.75 47.00 47.30 47.28 48.38 50.50 50.96 52.32 52.77 50.48 49.83 49.45 49.83 50.17 50.47 51.25 51.25 50.79 50.57 49.52
37.23 30.05 32.59 32.83 33.09 32.71 31.58 30.92 31.79 30.30 31.19 27.19 30.06 30.21 34.44 37.16 38.95 40.27 41.95 41.97 42.00 42.82 43.77 45.07 45.11 45.46 45.65 46.12 47.56 49.31 50.50 51.03 52.29 50.20 48.96 48.64 49.69 50.18 49.99 50.33 50.53 50.45 49.92 49.38
36.76 28.16 31.24 27.98 31.48 31.67 29.34 31.79 32.31 32.45 32.63 32.19 32.10 31.50 38.55 39.90 41.56 40.34 40.65 40.75 40.64 42.08 43.41 44.33 44.17 45.02 45.75 46.71 46.92 48.31 49.46 50.18 51.08 50.61 48.87 48.76 48.57 49.09 49.18 49.65 49.83 49.70 49.46 48.91
33.25 30.62 27.59 23.73 30.55 30.11 25.96 31.39 32.23 32.74 34.04 33.31 29.18 34.27 38.51 38.16 38.25 39.33 40.15 40.66 40.80 41.94 42.30 43.02 43.88 45.19 46.16 46.92 48.22 48.51 50.26 51.15 49.98 49.30 47.87 48.31 48.14 47.96 48.28 48.96 49.07 49.67 49.04 48.39
32.32 31.17 28.93 24.49 28.03 18.81 31.81 36.71 35.56 33.17 34.10 35.71 35.73 37.04 38.19 37.55 39.95 41.09 42.35 41.75 41.35 42.01 42.62 43.69 44.64 45.66 46.73 47.73 48.00 49.42 50.27 49.89 49.30 47.36 47.47 47.69 47.56 47.41 47.75 48.17 48.55 48.13 48.37 48.10
36.82 33.22 27.13 24.22 24.40 28.73 31.19 34.21 33.51 31.44 30.90 37.03 36.20 37.15 38.34 39.61 40.26 39.63 42.75 43.26 42.55 43.19 44.09 44.80 45.95 46.15 46.16 46.86 48.20 49.73 49.33 49.30 47.85 46.55 45.77 46.01 47.48 46.45 46.87 47.47 48.10 48.28 47.97 47.67
35.78 35.63 29.94 27.54 21.58 19.04 30.25 35.97 38.26 37.23 27.06 37.59 37.47 36.81 37.24 38.14 31.10 37.37 42.37 43.18 43.36 44.02 44.55 44.97 45.84 45.97 45.69 46.32 48.05 49.43 48.43 48.11 46.23 44.44 43.59 45.32 47.26 46.67 47.05 47.57 48.10 48.51 48.60 47.27
30.04 30.46 26.48 26.41 23.87 27.41 35.37 37.02 38.12 25.13 28.87 37.99 38.32 38.03 37.47 35.43 37.65 40.91 42.85 42.94 43.95 43.74 43.81 45.05 45.10 44.60 45.37 46.59 48.46 47.84 47.87 46.63 46.50 45.01 43.29 44.35 46.19 46.34 47.20 47.08 48.02 48.12 47.45 46.96
27.47 26.21 25.64 27.14 23.21 20.48 37.69 36.00 29.15 35.13 39.44 38.63 38.82 39.73 38.17 39.25 39.95 40.46 41.25 41.53 42.22 42.34 43.02 44.08 43.90 44.21 45.37 46.68 47.71 46.18 44.99 46.58 43.90 42.06 42.14 44.11 46.20 45.24 46.27 46.47 47.60 46.86 46.65 45.57
26.65 31.12 28.45 29.20 29.18 37.31 39.37 37.89 40.50 40.81 37.81 38.73 38.96 40.54 39.50 38.67 38.87 39.86 40.62 41.09 41.73 42.10 42.66 43.70 43.38 43.16 44.91 46.52 45.84 41.41 43.93 43.66 41.88 41.23 43.86 46.22 45.28 44.81 45.12 45.43 45.88 45.80 45.34 44.48
34.24 36.78 31.85 30.33 34.03 36.05 38.20 39.83 40.40 40.60 39.61 40.17 40.81 40.22 39.91 38.33 39.28 39.23 40.45 41.02 40.97 41.44 41.76 42.78 42.29 41.90 42.67 45.74 42.62 41.68 43.52 42.70 41.29 41.85 44.79 44.89 44.81 44.65 45.35 46.20 45.81 45.33 44.59 43.55
34.18 34.59 32.06 31.92 35.23 37.09 38.52 39.10 39.51 40.08 40.43 40.20 40.48 39.51 39.10 39.32 38.64 39.19 40.43 40.39 40.84 40.94 41.61 42.19 41.23 41.30 42.21 44.58 42.07 41.97 43.04 41.33 40.80 43.19 43.30 42.95 45.09 44.58 44.12 44.69 44.98 44.62 44.62 44.56
35.87 33.68 30.69 30.57 36.87 35.83 36.43 38.92 39.81 38.84 38.62 39.27 38.83 39.05 39.62 39.21 38.79 39.15 40.34 40.38 40.47 40.39 41.48 41.61 40.76 40.80 41.45 43.75 42.64 42.80 42.31 41.14 39.44 39.99 39.95 40.76 42.93 42.62 42.16 42.75 43.07 46.30 45.89 46.01
MSLP
1015.85 1015.29 1014.34 1013.91 1013.99 1013.79 1013.58 1013.02 1012.15 1011.40 1011.05 1010.97 1009.96 1008.75 1007.90 1007.16 1006.63 1006.36 1006.03 1005.82 1005.12 1004.57 1004.53 1005.04 1005.39 1006.34 1007.15 1007.57 1007.73 1008.21 1008.97 1010.00 1011.00 1011.89 1012.64 1013.40 1013.90 1014.72 1015.30 1015.90 1016.39 1016.91 1017.43 1018.02
1015.71 1014.88 1014.92 1015.06 1014.80 1014.63 1014.04 1013.17 1012.10 1011.29 1011.00 1010.84 1009.18 1007.29 1006.93 1005.96 1005.30 1005.15 1005.39 1005.33 1004.98 1004.81 1004.85 1004.83 1005.08 1005.87 1006.52 1006.81 1007.25 1007.86 1008.25 1009.18 1009.80 1010.59 1011.07 1011.99 1012.82 1013.59 1014.42 1015.29 1015.86 1016.37 1016.85 1017.41
1015.46 1015.08 1015.64 1015.33 1014.91 1014.66 1013.85 1013.21 1012.33 1011.74 1011.07 1010.46 1008.76 1005.74 1004.41 1004.27 1004.80 1004.80 1005.21 1005.36 1005.42 1005.42 1005.33 1005.37 1005.60 1005.93 1006.65 1007.06 1006.99 1006.95 1006.92 1007.79 1008.53 1009.48 1010.45 1011.34 1012.23 1013.21 1013.91 1014.48 1015.12 1015.63 1016.23 1016.83
1015.54 1015.59 1015.60 1015.33 1014.79 1014.50 1013.56 1013.23 1013.22 1012.62 1011.94 1010.19 1010.01 1005.28 1004.49 1003.10 1003.85 1004.54 1004.94 1004.95 1005.71 1006.50 1007.01 1007.35 1007.27 1007.06 1006.80 1006.81 1007.07 1007.00 1007.07 1007.28 1007.95 1009.08 1009.46 1009.86 1010.29 1011.22 1011.95 1012.90 1013.91 1014.69 1015.42 1016.04
1015.25 1015.39 1015.37 1015.12 1014.70 1014.84 1013.94 1014.11 1013.57 1012.93 1011.89 1010.69 1009.41 1008.51 1003.69 1003.18 1003.76 1005.04 1005.93 1007.40 1008.11 1008.60 1008.60 1008.33 1008.33 1008.23 1007.73 1007.45 1006.91 1006.68 1006.59 1006.73 1007.19 1007.92 1008.29 1008.50 1009.11 1009.79 1010.78 1011.87 1012.92 1013.85 1014.82 1015.35
1016.03 1015.95 1016.01 1015.35 1015.33 1015.21 1014.81 1014.12 1013.12 1012.81 1012.10 1010.19 1008.06 1007.69 1003.58 1004.37 1005.49 1006.18 1007.82 1008.57 1009.05 1009.31 1009.34 1009.57 1009.24 1008.92 1008.25 1007.75 1007.31 1006.73 1006.34 1006.02 1006.25 1006.99 1007.50 1007.49 1007.57 1008.35 1009.35 1010.50 1011.72 1012.82 1013.69 1014.51
1016.38 1015.87 1016.20 1016.21 1015.42 1015.31 1014.90 1014.11 1012.78 1011.80 1011.45 1009.07 1008.86 1007.86 1004.97 1005.30 1006.95 1008.69 1009.51 1009.82 1009.71 1009.95 1010.24 1010.14 1009.91 1009.53 1008.40 1007.76 1007.03 1006.69 1006.03 1005.68 1005.75 1005.95 1006.61 1007.09 1007.13 1007.49 1008.06 1009.34 1010.23 1011.35 1012.36 1013.44
1017.41 1016.31 1016.69 1017.25 1017.26 1016.65 1015.85 1015.56 1014.81 1013.22 1011.38 1009.98 1010.06 1006.98 1005.66 1006.19 1007.28 1009.34 1010.57 1011.04 1011.41 1011.39 1010.90 1010.36 1010.05 1009.88 1009.09 1008.05 1007.21 1006.65 1005.59 1005.07 1005.43 1005.48 1005.82 1006.49 1006.99 1007.19 1007.42 1008.37 1009.13 1010.07 1010.93 1011.95
1019.39 1018.00 1017.62 1017.91 1017.90 1017.62 1016.39 1016.53 1017.21 1015.82 1014.02 1012.19 1009.48 1007.87 1006.77 1007.14 1008.21 1010.20 1010.76 1011.05 1011.65 1011.59 1011.31 1010.60 1009.77 1009.43 1008.78 1007.98 1007.29 1006.67 1005.75 1004.95 1004.81 1004.94 1005.32 1005.78 1005.95 1006.34 1006.63 1007.38 1008.24 1008.99 1010.07 1011.14
1021.48 1020.08 1018.64 1018.92 1018.55 1018.21 1018.17 1018.79 1018.12 1017.51 1015.30 1012.66 1009.89 1009.84 1008.95 1009.98 1011.12 1011.56 1011.42 1011.47 1011.11 1011.30 1011.20 1010.42 1009.89 1009.50 1008.93 1008.08 1007.30 1006.56 1005.99 1005.15 1004.58 1004.58 1004.73 1005.22 1005.46 1005.81 1006.46 1006.91 1007.30 1008.12 1009.17 1010.31
1023.00 1021.87 1019.94 1019.86 1019.36 1019.06 1019.64 1019.56 1019.94 1019.88 1018.64 1016.42 1014.32 1011.58 1011.82 1012.42 1012.41 1012.27 1012.72 1012.80 1012.70 1012.09 1011.41 1010.55 1010.02 1009.33 1008.85 1008.35 1007.15 1006.42 1005.67 1005.21 1004.58 1004.35 1004.28 1004.61 1004.81 1005.25 1005.92 1006.38 1006.98 1007.60 1008.47 1009.55
1024.39 1023.39 1021.48 1020.49 1020.18 1020.43 1020.78 1021.51 1021.57 1021.37 1020.35 1019.38 1018.30 1013.25 1015.49 1014.21 1013.95 1013.47 1013.37 1013.68 1013.45 1012.57 1011.65 1010.89 1010.15 1009.33 1008.76 1007.89 1006.97 1006.41 1005.70 1005.22 1004.93 1004.21 1003.98 1004.17 1004.37 1004.67 1005.01 1005.72 1006.39 1007.18 1007.92 1009.02
1025.29 1023.98 1022.63 1020.42 1021.44 1021.30 1021.00 1022.13 1022.28 1022.22 1021.69 1019.78 1018.50 1015.88 1016.04 1015.14 1014.29 1013.87 1013.58 1013.73 1013.20 1012.37 1011.53 1010.68 1010.08 1009.31 1008.65 1008.12 1007.63 1006.41 1005.81 1005.22 1004.43 1004.23 1004.01 1003.88 1003.80 1004.17 1004.51 1004.91 1005.58 1006.43 1007.16 1008.35
1025.81 1024.77 1023.97 1022.88 1022.31 1022.59 1022.08 1022.46 1022.13 1021.74 1020.86 1019.08 1018.15 1016.37 1015.76 1014.87 1014.04 1013.92 1013.91 1013.84 1013.05 1012.17 1011.25 1010.35 1009.74 1008.95 1008.47 1008.09 1007.48 1006.16 1005.70 1005.23 1004.65 1004.31 1004.12 1003.76 1003.49 1003.72 1004.17 1004.43 1004.96 1005.52 1006.30 1007.57
1025.92 1025.03 1024.60 1023.98 1023.43 1022.97 1022.11 1021.94 1021.14 1020.51 1019.67 1018.67 1017.13 1016.41 1015.35 1014.71 1014.35 1014.08 1014.09 1013.52 1012.60 1011.69 1010.86 1010.20 1009.13 1008.36 1007.86 1007.87 1006.63 1005.84 1005.86 1005.36 1004.76 1004.36 1003.72 1003.52 1003.29 1003.33 1003.65 1004.18 1004.39 1004.90 1005.61 1006.65
1026.50 1025.90 1025.39 1024.46 1024.00 1022.85 1021.54 1020.80 1019.96 1019.43 1018.89 1017.69 1016.72 1015.62 1015.17 1014.90 1014.90 1014.37 1013.72 1013.29 1012.39 1011.32 1010.48 1009.99 1009.21 1007.89 1007.21 1006.47 1006.15 1006.18 1005.72 1004.80 1004.75 1003.53 1002.89 1003.12 1003.22 1002.98 1003.13 1003.53 1003.98 1004.53 1005.03 1005.94
1026.59 1026.01 1025.68 1023.89 1023.34 1022.14 1020.54 1018.83 1018.33 1018.06 1017.88 1016.91 1016.21 1015.56 1015.53 1015.43 1014.99 1013.74 1013.16 1012.82 1011.93 1011.03 1010.55 1009.70 1008.92 1007.84 1006.82 1006.10 1005.33 1005.11 1003.81 1003.78 1004.01 1003.32 1002.90 1002.53 1002.67 1002.83 1002.89 1002.98 1003.61 1003.97 1004.44 1005.27
1025.81 1025.82 1025.89 1024.17 1023.19 1020.97 1018.72 1018.39 1017.93 1017.46 1016.74 1016.62 1016.00 1015.88 1016.06 1015.79 1014.88 1013.06 1013.18 1012.02 1011.54 1011.12 1010.32 1009.14 1008.21 1007.30 1006.47 1005.75 1004.87 1004.17 1003.69 1003.33 1003.62 1002.76 1001.84 1001.63 1002.23 1002.26 1002.68 1002.66 1002.84 1003.74 1004.21 1004.71
1025.20 1025.54 1025.18 1024.11 1022.11 1019.77 1018.74 1017.37 1017.08 1016.99 1015.92 1016.37 1015.88 1016.16 1015.73 1015.28 1014.50 1011.90 1012.66 1012.08 1011.72 1010.85 1009.91 1008.87 1007.93 1007.01 1006.03 1005.12 1004.22 1003.06 1002.41 1001.57 1000.63 1001.02 1001.43 1001.65 1001.77 1001.34 1002.01 1002.12 1002.28 1002.84 1003.84 1004.53
1024.48 1024.73 1024.76 1023.24 1021.87 1019.60 1017.85 1017.27 1017.25 1017.41 1016.13 1016.27 1016.43 1016.06 1015.61 1015.01 1014.30 1011.99 1012.11 1011.73 1010.95 1010.40 1009.58 1008.49 1007.63 1006.66 1005.61 1004.56 1003.77 1003.40 1002.99 1002.76 1002.20 1001.69 1001.21 1000.35 999.89 1000.56 1001.36 1001.42 1001.86 1002.10 1002.99 1004.15
1023.76 1023.41 1023.53 1022.48 1021.14 1019.46 1017.65 1017.27 1017.56 1017.19 1016.10 1016.01 1016.45 1015.96 1015.42 1014.77 1014.11 1012.89 1012.19 1010.95 1010.53 1009.85 1008.82 1007.88 1007.07 1006.23 1005.20 1004.06 1003.22 1002.88 1002.59 1001.93 1001.30 1000.99 1000.27 999.53 999.58 1000.12 1000.74 1000.50 1001.35 1001.75 1002.38 1003.55
1023.43 1022.76 1022.22 1021.36 1020.43 1018.51 1017.60 1017.71 1017.85 1017.20 1016.42 1016.45 1016.08 1015.43 1014.92 1014.16 1013.19 1012.26 1011.46 1010.77 1009.96 1009.13 1008.09 1007.13 1006.24 1005.43 1004.74 1003.82 1002.62 1002.43 1002.42 1001.04 1000.19 999.99 999.01 999.04 998.41 999.41 998.80 999.89 1000.79 1001.44 1001.86 1002.98
1022.58 1022.14 1021.61 1021.24 1019.44 1017.79 1017.47 1017.46 1017.22 1016.89 1016.89 1016.75 1016.16 1015.09 1014.70 1013.80 1012.69 1011.66 1010.76 1009.99 1009.30 1008.74 1007.72 1006.72 1005.81 1004.95 1004.10 1003.29 1003.06 1002.33 1001.10 1000.13 999.02 997.75 996.82 996.33 997.11 998.21 998.40 999.53 1000.40 1000.81 1001.54 1002.41
1021.28 1021.32 1020.86 1020.80 1018.93 1017.96 1017.31 1017.15 1017.05 1016.89 1016.60 1016.10 1015.48 1014.68 1014.04 1013.17 1012.02 1011.15 1010.28 1009.51 1008.80 1008.16 1007.28 1006.34 1005.47 1004.47 1003.40 1002.78 1003.03 1002.25 1001.24 1000.02 998.78 997.42 996.16 997.02 997.51 997.45 998.19 999.24 1000.01 1000.40 1000.90 1002.03
1021.06 1020.98 1019.90 1019.18 1018.41 1017.75 1017.45 1017.49 1017.29 1016.55 1016.20 1015.46 1014.51 1014.04 1013.37 1012.67 1011.50 1010.91 1009.62 1008.92 1008.24 1007.64 1006.90 1006.14 1005.25 1004.35 1003.29 1002.36 1002.50 1002.07 1000.87 999.43 998.37 997.18 997.26 997.38 995.92 997.04 998.22 999.32 999.60 1000.23 1000.95 1001.72
1020.21 1019.56 1019.30 1018.56 1018.59 1018.92 1017.90 1017.53 1016.86 1016.12 1015.35 1014.59 1013.90 1012.68 1012.30 1012.24 1011.05 1010.18 1009.00 1008.51 1007.86 1007.06 1006.38 1005.51 1004.77 1003.92 1002.99 1002.21 1001.94 1001.63 1000.72 998.83 998.06 997.34 997.68 997.68 997.17 998.04 998.78 999.33 999.97 1000.86 1001.39 1002.60
Wind_Speed
1 6 8 10 7 11 12 13 18 20 21 22 21 23 24 25 23 23 23 23 23 24 22 19 15 16 19 21 23 24 23 25 18 15 15 13 13 12 11 10 13 13 11 12
6 8 7 1 4 8 11 15 18 17 13 14 19 29 27 27 26 23 20 19 20 19 17 17 14 13 17 21 22 23 24 24 21 15 14 14 13 12 11 10 12 14 14 13
8 3 1 4 6 8 11 13 16 19 20 16 18 23 11 8 7 10 11 14 17 16 16 16 17 14 11 17 20 22 25 26 24 23 14 12 12 9 11 12 12 14 15 14
8 2 5 5 11 9 13 5 11 14 11 10 12 20 15 6 2 3 8 13 18 19 18 17 19 18 16 14 16 20 22 24 23 24 19 23 17 15 13 14 13 14 17 16
3 6 8 11 8 3 11 7 11 14 16 17 12 10 3 11 9 12 18 16 16 16 18 21 19 20 18 17 16 16 20 23 24 24 23 19 21 15 12 13 17 16 15 16
14 8 7 6 8 7 12 10 14 9 9 9 8 14 11 8 3 16 14 17 18 19 19 20 22 22 19 18 17 15 19 21 22 23 25 25 25 22 15 16 14 13 13 13
11 4 1 5 3 1 10 11 8 6 7 9 4 10 17 19 13 15 16 20 27 26 23 22 22 21 23 23 21 17 16 20 22 24 26 26 24 24 23 19 15 17 14 12
7 2 4 5 10 8 11 6 6 11 11 18 17 16 10 12 7 14 17 17 23 27 23 24 24 24 23 23 21 22 19 18 19 22 25 23 24 15 15 19 14 13 14 14
8 3 11 15 7 5 5 6 10 15 21 20 15 21 22 17 14 28 28 28 30 27 25 27 25 23 22 22 23 21 19 16 16 20 20 22 22 23 19 21 19 15 16 14
3 11 5 5 10 7 8 11 9 7 10 14 13 23 22 20 28 29 32 35 32 29 30 25 21 21 21 20 20 20 18 16 15 16 17 17 21 22 20 18 20 19 18 18
8 6 4 13 6 15 14 8 5 7 10 13 19 15 20 29 32 32 30 28 28 29 27 24 21 20 19 20 20 20 17 16 14 14 15 17 18 20 20 19 19 18 19 19
5 7 13 20 16 5 3 8 9 10 18 18 20 27 26 26 28 27 27 23 26 26 25 23 21 19 19 19 21 20 17 16 14 13 13 16 17 19 20 20 20 19 19 19
7 2 10 3 7 10 4 16 16 18 15 22 21 17 22 28 29 25 26 25 22 24 27 24 21 17 18 19 19 19 19 16 15 14 13 15 16 18 20 21 20 20 20 19
8 10 13 12 17 18 23 21 21 20 15 21 19 27 25 27 27 25 23 23 23 24 25 24 19 18 20 17 16 18 19 18 16 13 14 15 16 17 18 19 20 21 20 20
5 9 13 17 22 23 25 22 24 23 23 23 24 26 24 24 23 23 21 25 26 24 24 22 24 23 21 18 16 15 18 20 17 13 13 14 15 16 17 19 20 20 21 19
7 11 13 19 23 24 24 23 25 24 22 25 25 25 22 21 20 22 23 22 26 24 21 23 28 26 24 23 16 14 16 16 18 16 14 14 14 15 17 19 21 20 20 20
14 7 9 16 16 17 15 16 13 16 22 22 19 22 21 17 23 26 23 23 22 21 25 27 25 24 23 23 21 17 18 18 19 17 16 14 14 16 17 19 20 19 20 21
12 12 7 10 13 14 8 19 23 20 22 18 19 18 14 19 23 28 24 19 20 24 26 25 22 22 23 21 21 19 17 17 16 18 16 12 16 16 17 19 20 20 19 20
14 11 6 7 13 19 18 14 13 15 25 15 18 12 22 23 24 29 17 20 24 25 25 24 22 23 23 22 21 19 20 19 20 20 17 13 17 15 18 19 20 19 18 17
7 12 10 13 16 17 18 21 13 5 17 6 17 23 25 23 15 20 26 25 25 23 22 23 24 23 23 22 21 18 19 20 19 16 18 16 15 17 20 19 18 17 17 18
7 8 14 14 17 14 15 8 4 12 14 24 22 22 20 19 16 26 26 27 24 23 26 25 23 21 23 23 21 18 20 23 21 21 18 16 16 18 20 17 17 17 18 17
8 8 11 11 9 12 5 5 14 18 25 22 23 21 21 23 25 26 24 24 25 25 26 26 22 20 22 23 18 15 20 23 20 18 17 18 16 14 13 18 16 19 18 18
7 10 10 10 11 22 25 24 21 20 19 19 23 21 20 23 25 26 24 24 22 24 22 22 21 22 21 21 11 16 21 20 21 19 19 12 12 14 13 16 18 16 17 15
15 13 13 15 18 24 21 25 20 13 16 18 20 22 23 24 26 27 24 22 22 20 22 21 22 22 23 17 11 13 21 18 18 18 9 7 15 14 16 13 14 13 14 13
15 18 18 22 24 21 16 13 18 19 19 20 22 22 24 24 26 24 22 23 21 21 20 20 20 20 22 18 11 12 19 16 13 12 7 9 8 13 14 13 12 12 13 14
12 13 10 15 19 14 13 14 18 20 22 23 24 27 25 24 24 25 21 20 20 21 21 20 20 21 21 20 9 9 16 15 10 7 6 5 10 12 9 11 12 12 18 18
Wind_Direction
28 263 261 309 264 293 289 282 281 281 290 294 276 279 281 284 277 265 262 266 268 266 268 262 256 237 231 227 221 216 211 208 200 196 197 198 201 198 199 200 196 191 186 186
233 264 346 282 259 255 266 277 282 287 289 293 292 289 288 274 272 273 272 274 273 284 291 284 270 245 238 233 227 224 217 209 204 197 197 199 198 200 196 195 195 194 190 187
270 358 77 291 276 260 263 269 285 294 311 281 301 285 288 294 278 283 271 276 291 297 301 321 333 318 266 254 243 228 218 211 208 202 192 193 194 190 194 196 195 196 193 188
276 27 278 277 277 275 288 325 289 296 307 299 18 297 316 330 324 307 328 359 20 13 15 11 0 352 330 288 263 254 236 226 215 203 195 191 190 189 199 192 192 189 192 190
329 298 297 288 299 253 293 342 307 292 282 294 271 250 186 309 357 73 51 42 33 22 14 8 0 354 350 342 307 262 245 234 220 210 205 196 199 203 191 191 188 188 189 193
274 296 286 296 315 287 311 298 285 268 268 255 277 221 302 38 89 9 20 22 16 10 4 356 349 345 341 341 337 296 261 243 226 214 210 207 203 201 193 188 183 186 186 190
302 298 136 347 309 28 330 322 295 238 212 265 65 280 256 311 32 40 23 13 4 356 353 345 343 338 338 335 337 326 276 253 238 221 218 216 215 207 197 190 184 179 183 188
341 171 39 15 355 312 305 309 285 289 299 302 300 260 259 328 333 38 355 348 350 343 339 338 337 332 327 329 334 331 313 264 249 234 222 221 218 215 199 195 187 184 184 185
330 248 329 344 348 300 26 284 337 286 275 270 258 270 274 298 5 344 333 333 337 337 338 329 326 329 325 326 330 330 322 293 258 246 231 224 218 213 204 197 192 185 184 183
41 291 286 34 324 198 13 339 301 268 281 273 281 310 299 341 334 331 335 329 330 334 329 325 332 332 325 325 326 329 326 307 280 256 238 229 225 216 210 203 194 186 181 181
331 248 248 330 286 308 311 302 299 314 282 289 298 275 348 319 319 322 326 329 327 325 326 326 327 333 329 327 328 326 331 319 294 266 242 231 224 220 212 207 200 188 179 178
14 302 289 294 298 316 180 135 315 289 292 281 284 277 291 307 309 312 317 332 320 314 320 314 313 322 327 331 329 327 329 328 304 280 249 237 225 216 212 207 201 187 180 179
3 295 308 265 129 171 302 320 303 287 273 268 275 287 303 299 301 303 318 323 316 317 315 317 318 320 323 328 322 326 326 328 326 295 261 242 224 217 214 207 199 190 180 178
285 251 245 268 289 294 292 291 285 278 271 278 277 293 300 300 304 312 320 318 311 310 309 315 315 318 319 318 314 319 326 325 326 305 271 251 230 217 217 208 198 190 180 178
302 274 281 282 288 285 283 289 279 276 277 277 290 290 295 306 309 312 312 313 313 310 311 314 317 317 317 313 318 325 315 320 315 309 283 260 243 225 211 211 200 189 183 179
299 280 292 287 282 276 280 280 282 280 275 272 287 290 296 321 312 308 306 316 310 311 313 314 315 316 317 317 319 310 305 309 310 309 301 271 253 229 215 206 201 190 181 178
283 269 276 276 288 286 272 265 295 290 290 289 289 301 316 314 312 304 311 310 306 316 320 313 313 311 312 314 312 308 315 317 308 305 296 275 252 238 220 205 203 192 181 176
246 251 254 287 290 275 306 307 297 285 279 291 292 304 304 309 309 300 310 306 315 317 311 311 312 311 311 309 309 305 314 306 295 296 299 289 253 234 224 210 198 193 184 177
219 246 263 261 268 286 291 294 313 303 288 299 292 302 310 318 313 295 309 324 316 312 309 307 309 309 310 308 306 308 309 314 314 306 295 270 241 227 223 211 199 186 185 177
239 232 245 276 284 285 287 304 327 292 282 77 339 319 315 317 303 300 317 314 311 313 310 308 306 308 306 309 308 304 303 303 295 287 283 277 256 227 218 203 196 184 176 174
267 247 236 264 274 276 279 304 260 263 309 323 314 307 309 309 302 303 308 307 308 309 306 307 305 305 306 310 303 305 306 301 301 290 279 267 229 219 212 194 192 179 171 165
279 286 273 271 267 277 72 315 285 303 306 304 306 308 310 306 305 306 308 308 310 310 307 306 307 309 309 309 312 308 302 302 302 287 270 253 211 203 195 192 186 178 163 160
261 231 288 264 269 287 297 298 297 298 299 308 306 302 306 303 302 304 306 307 309 309 306 305 308 311 308 312 326 306 300 312 299 291 274 238 190 188 184 184 181 174 162 159
280 264 255 279 265 276 295 306 302 322 298 293 295 298 302 301 303 302 303 305 306 307 307 309 310 310 310 318 307 305 303 308 301 283 264 216 191 183 183 180 181 168 161 153
278 294 273 272 279 292 289 306 312 304 300 292 293 302 299 297 296 300 297 302 302 305 306 307 306 305 304 313 306 314 314 312 300 283 201 213 181 176 179 178 174 165 152 152
258 263 273 279 306 297 290 298 299 300 304 302 302 301 301 298 295 299 296 298 300 302 304 302 301 301 307 306 288 314 324 322 305 266 180 199 169 168 161 162 143 108 123 112